Temperature
22 22 21 21 21 21 20 20 20 19 19 19 19 19 19 19 19 18 18 18 18 18 18 17 17 17 17 17 16 16 16 16 15 15 15 15 15 15 15 15 14 14 14
22 22 21 21 21 21 20 20 20 20 19 19 19 19 19 19 19 18 18 18 18 18 17 17 17 17 17 17 16 16 16 16 16 15 15 15 15 15 14 14 14 14 14
22 22 21 21 21 21 21 20 20 20 19 19 19 19 19 19 18 18 18 18 18 17 17 17 17 17 17 16 16 16 16 16 15 15 15 15 15 14 14 14 14 14 14
22 22 21 21 21 21 21 20 20 20 20 19 19 19 19 18 18 18 18 17 17 17 17 17 16 16 16 16 16 16 16 15 15 15 15 15 14 14 14 14 14 14 13
22 22 21 21 21 21 21 20 20 20 20 19 19 19 19 18 18 18 17 17 17 17 17 16 16 16 16 16 16 15 15 15 15 15 15 15 14 14 14 14 13 13 13
22 22 21 21 21 21 20 20 20 20 19 19 19 19 19 18 18 17 17 17 17 17 16 16 16 16 16 16 15 15 15 15 15 15 15 14 14 14 14 14 13 13 13
21 21 21 21 21 21 20 20 20 20 19 19 19 18 18 18 17 17 17 17 16 16 16 16 16 16 15 15 15 15 15 15 15 14 14 14 14 14 14 13 13 13 13
21 21 21 20 20 21 20 20 20 20 19 19 18 18 18 18 17 17 17 16 16 16 16 15 15 15 15 15 15 15 15 15 14 14 14 14 14 13 13 13 13 13 13
21 21 21 20 20 20 20 20 20 19 19 19 18 18 18 18 17 17 16 16 16 16 15 15 15 15 15 14 14 14 14 14 14 14 14 13 13 13 13 13 13 12 12
20 20 20 20 20 20 20 20 19 19 19 18 18 18 17 17 17 17 16 16 16 15 15 15 15 15 14 14 14 14 14 14 14 14 14 13 13 13 13 13 13 12 12
20 20 20 20 20 20 19 19 19 18 18 18 18 17 17 17 16 16 16 15 15 15 15 15 15 14 14 14 14 14 14 13 13 13 13 13 13 13 13 13 12 12 12
20 20 20 19 19 19 19 19 18 18 18 17 17 17 17 16 16 16 15 15 15 15 15 15 14 14 14 14 13 13 13 13 13 13 12 13 13 13 13 12 12 12 12
19 19 19 19 19 18 18 18 18 18 17 17 17 16 16 16 16 15 15 15 14 14 14 14 14 14 13 13 13 13 13 13 12 12 12 12 12 12 12 12 12 12 12
18 18 18 18 18 18 17 17 17 17 17 17 16 16 16 15 15 15 14 14 14 14 14 14 14 13 13 13 13 13 13 12 12 12 12 12 12 12 12 12 12 12 12
18 18 17 17 17 17 17 17 17 16 16 16 16 15 15 15 15 14 14 14 14 14 13 13 13 13 13 13 12 12 12 12 12 12 12 12 12 12 12 11 11 11 11
17 17 16 16 16 16 16 16 16 15 15 15 15 15 15 14 14 14 14 14 13 13 13 13 13 13 12 12 12 12 12 12 12 12 11 11 11 11 11 11 11 11 11
16 16 16 16 16 15 15 15 15 15 15 14 14 14 14 14 14 14 13 13 13 13 12 12 12 12 12 12 12 11 11 11 11 11 11 11 11 11 11 11 11 10 10
16 15 15 15 15 15 15 14 14 14 14 14 14 14 14 13 13 13 13 13 13 12 12 12 11 11 11 11 11 11 11 11 11 11 11 11 10 10 10 10 10 10 10
15 15 15 14 14 14 14 14 14 13 13 13 13 13 13 13 13 13 12 12 12 12 12 11 11 11 11 11 11 10 10 10 10 10 10 10 10 10 10 10 10 10 10
14 14 14 14 14 13 13 13 13 13 13 13 13 13 13 12 12 12 12 11 11 11 11 11 10 10 10 10 10 10 10 10 10 9 9 9 9 9 9 9 9 9 9
14 14 13 13 13 13 13 13 13 13 12 12 12 12 12 11 11 11 11 11 11 10 10 10 10 10 10 10 10 9 9 9 9 9 9 9 9 9 9 9 9 9 9
13 13 13 13 13 12 12 12 12 12 12 12 11 11 11 11 11 11 11 10 10 10 10 10 10 9 9 9 9 9 9 9 9 9 9 9 9 9 9 9 9 9 9
13 13 13 12 12 12 12 12 12 11 11 11 11 11 10 10 10 10 10 10 10 10 9 9 9 9 9 9 8 8 8 8 9 9 8 8 8 8 8 8 8 8 8
12 12 12 12 12 12 11 11 11 11 11 10 10 10 10 10 10 9 9 9 9 9 9 9 8 8 8 8 8 8 8 8 8 8 8 8 8 8 8 8 8 8 8
11 11 11 11 11 11 11 11 10 10 10 10 10 9 9 9 9 9 9 9 9 9 8 8 8 8 8 8 8 8 8 8 8 8 8 8 8 8 8 8 8 8 8
11 11 11 10 10 10 10 10 10 10 9 9 9 9 9 9 8 8 8 8 8 8 8 8 8 8 8 8 8 8 8 8 8 8 7 7 7 7 8 8 8 8 8
Wind_Speed
8 7 6 6 6 5 4 4 4 3 2 3 3 3 3 3 3 4 4 3 4 4 3 4 4 3 3 3 3 4 4 4 3 2 1 1 2 2 1 1 1 1 2
8 7 7 6 5 5 5 4 4 4 3 3 3 3 3 3 3 4 4 4 4 4 4 4 4 3 4 3 3 4 4 4 4 4 2 1 2 2 2 1 1 1 2
7 7 6 6 6 6 6 5 5 4 3 3 3 3 3 3 3 3 4 4 4 4 4 4 4 3 3 3 3 4 3 4 3 3 2 1 1 1 1 1 1 1 2
8 7 7 7 7 6 6 5 5 4 4 4 4 3 3 3 3 3 3 3 3 3 3 3 3 4 4 4 4 4 4 3 3 3 2 2 2 2 2 2 2 2 2
8 8 8 7 6 6 5 5 4 4 5 4 4 3 3 3 3 3 3 4 4 3 3 3 3 3 4 4 3 4 4 4 3 3 3 2 2 3 3 3 3 2 2
8 8 7 6 6 6 5 5 4 4 3 3 4 4 3 3 3 4 4 3 3 4 3 3 2 2 2 3 3 4 5 5 5 4 3 4 4 4 3 4 3 2 2
7 7 6 6 6 5 5 4 4 4 4 4 4 4 4 3 3 4 4 3 3 3 3 3 3 2 3 2 2 2 4 5 6 5 5 5 5 5 5 5 5 5 4
5 4 5 6 6 5 5 5 5 4 4 4 4 4 4 3 4 4 4 3 3 3 3 4 4 3 3 2 2 2 2 4 5 5 5 6 5 5 6 5 5 4 2
6 5 5 6 5 5 5 5 5 4 4 4 3 4 4 3 4 5 5 3 3 3 3 3 4 4 3 3 3 3 3 3 4 5 5 5 5 5 6 4 4 4 4
5 5 5 6 6 6 6 5 4 4 4 4 3 3 3 3 3 4 5 3 2 2 2 3 4 4 4 4 4 4 5 5 3 3 3 3 4 5 7 7 6 6 4
4 4 4 5 6 6 5 4 3 3 3 2 2 1 2 2 2 3 4 3 3 3 3 3 3 4 5 6 6 5 6 5 3 3 3 3 3 3 4 6 6 6 6
4 3 3 3 3 4 4 4 4 4 3 2 1 1 1 1 1 2 4 5 4 3 3 3 3 4 5 6 5 5 5 4 2 2 3 4 4 4 4 5 6 7 7
3 3 3 3 3 4 5 5 4 3 3 3 2 2 2 1 1 2 4 5 5 3 2 3 3 3 3 3 4 4 3 2 2 3 4 5 5 5 4 3 4 5 5
3 3 3 3 3 2 2 3 3 3 3 3 3 3 2 1 1 1 1 2 2 2 2 1 1 2 1 2 2 2 2 3 3 4 4 4 3 3 3 3 3 3 4
3 2 2 2 3 3 2 1 1 2 3 4 4 4 3 3 3 3 3 2 2 2 1 0 0 1 1 2 2 2 2 2 3 4 4 4 3 3 3 3 3 3 4
2 2 2 2 2 3 3 2 4 1 0 2 3 3 2 3 3 3 3 2 2 3 2 1 2 2 3 3 3 3 3 3 4 4 4 4 4 4 3 3 3 4 5
3 3 2 3 3 3 3 3 1 2 3 2 1 2 2 2 2 2 2 1 2 4 2 2 3 3 4 4 4 4 4 4 3 4 4 4 4 4 3 3 4 4 5
3 3 3 3 3 3 3 3 3 3 1 1 1 0 1 1 2 2 3 3 1 1 2 2 3 4 4 4 4 4 4 3 3 3 4 4 4 4 4 4 4 5 5
3 3 3 3 3 3 3 2 2 2 2 1 1 1 1 0 1 2 3 1 1 2 3 3 4 4 4 4 4 4 4 4 4 4 4 4 4 4 5 5 5 6 6
2 3 3 3 2 2 2 2 2 2 1 1 1 1 0 0 0 0 1 2 2 3 3 4 4 4 4 4 4 4 4 4 4 5 5 4 4 5 6 6 5 5 5
2 2 3 3 2 2 2 2 2 2 2 1 1 1 1 1 1 1 1 2 2 3 3 3 3 3 3 3 4 4 4 5 5 5 5 5 5 5 5 5 5 6 5
2 2 2 2 2 2 2 2 2 2 2 2 1 1 1 0 1 1 1 2 2 2 2 2 3 3 3 3 4 4 5 5 5 5 5 5 5 5 5 5 5 5 5
2 2 2 1 2 3 2 2 2 2 2 1 1 0 0 0 1 2 2 2 2 2 2 2 2 2 3 3 3 4 5 6 6 6 6 6 6 5 5 6 6 6 6
2 2 2 1 2 2 1 1 1 1 1 1 1 1 1 1 1 2 2 2 2 2 2 2 2 3 4 4 4 4 5 6 6 6 7 6 6 6 5 5 6 7 7
2 2 2 1 1 2 2 1 1 1 1 1 1 1 1 1 1 1 2 2 2 2 3 3 3 3 5 6 6 6 7 7 6 6 5 5 6 6 6 6 6 6 6
2 2 2 2 1 1 1 1 1 1 0 0 0 0 1 1 1 1 2 2 2 3 3 3 4 5 6 6 7 8 7 7 7 7 5 5 5 6 6 6 7 6 6
Wind_Direction
189 190 187 189 191 188 195 205 205 202 190 192 192 185 190 200 194 188 203 196 203 220 217 213 225 218 212 209 199 193 197 191 219 258 244 215 194 194 167 159 176 191 187
187 182 188 188 184 190 200 205 200 200 199 196 185 186 198 204 198 196 206 206 210 222 228 225 233 222 219 215 207 211 208 200 201 224 239 203 213 205 187 191 200 208 201
177 178 182 186 190 199 203 202 199 199 195 191 186 194 203 202 199 203 204 210 214 222 225 225 233 219 225 222 218 217 212 205 202 205 229 211 209 183 168 192 205 217 212
173 179 188 194 196 200 200 196 194 190 189 193 195 199 203 204 204 205 205 213 221 226 223 225 230 221 223 222 222 218 205 194 187 192 215 224 212 183 174 195 216 219 224
173 184 197 196 190 190 191 196 194 192 199 193 185 192 201 202 209 204 207 213 219 225 225 225 230 230 220 214 219 212 198 195 189 195 206 213 209 194 204 196 213 222 228
176 190 190 184 185 188 193 192 189 189 190 185 192 197 205 217 211 197 194 208 215 221 229 230 231 236 230 217 217 204 195 195 200 200 208 216 224 218 206 196 193 200 238
180 184 181 179 184 188 189 185 192 196 195 200 209 207 213 222 204 196 192 198 215 224 226 227 236 236 223 225 228 205 207 211 200 195 208 223 225 214 200 204 205 210 225
168 179 175 175 186 183 180 191 201 200 201 208 217 213 211 218 197 193 192 204 221 226 222 220 227 237 220 201 197 211 227 231 223 208 215 225 226 214 206 210 212 210 218
170 177 178 180 184 185 191 200 201 196 200 206 214 205 205 225 203 194 185 204 223 240 238 228 226 230 227 198 195 225 254 261 242 226 228 233 224 205 190 182 186 199 230
187 190 181 176 179 188 192 193 192 190 197 193 209 207 205 224 217 200 194 198 216 247 249 239 228 225 227 202 214 224 248 260 256 255 254 249 231 207 192 200 203 209 223
175 172 177 180 185 189 179 167 158 165 173 177 194 225 223 234 230 203 189 194 211 234 251 251 241 223 226 221 218 225 239 244 246 243 248 256 248 229 218 214 213 213 220
153 155 168 173 179 171 159 159 155 153 159 165 172 245 277 258 226 204 187 199 205 214 236 245 247 233 233 231 231 245 243 229 231 234 245 253 251 246 241 233 220 220 228
144 162 167 167 170 164 163 162 157 160 167 176 186 220 257 272 247 202 196 209 211 216 236 235 233 226 233 233 241 239 220 216 222 238 250 254 253 251 244 238 232 230 238
155 170 164 156 149 146 152 162 165 172 177 184 198 217 236 245 238 226 225 223 217 222 239 242 224 209 224 248 261 255 232 226 225 240 251 258 255 246 236 229 233 234 243
154 158 157 154 146 131 116 118 160 207 204 197 205 202 204 231 238 215 205 217 217 210 181 159 287 268 261 263 262 260 251 240 243 250 250 255 253 248 243 227 224 226 234
162 167 165 156 142 135 126 79 48 53 78 181 192 192 217 221 216 217 235 230 198 166 154 212 245 248 251 255 257 260 254 251 250 245 241 243 246 246 245 235 226 227 239
184 184 169 162 157 156 157 159 153 32 41 58 131 175 192 206 202 212 212 157 148 148 166 232 248 254 255 257 259 258 261 260 253 244 240 244 248 248 242 241 238 238 244
179 177 172 170 168 173 182 184 183 183 208 329 357 62 142 182 189 176 149 110 83 149 231 245 254 259 260 259 260 262 263 264 254 252 247 241 241 241 244 247 245 247 248
170 172 168 162 165 173 175 179 182 183 192 225 301 339 31 71 152 161 149 157 230 253 254 256 258 260 260 259 258 258 257 257 258 252 252 250 245 242 246 248 247 250 248
165 160 156 151 156 169 178 182 183 184 195 228 265 276 281 121 230 246 220 236 248 261 263 264 268 270 271 266 260 258 261 262 260 255 255 255 254 247 246 247 245 244 242
151 150 145 147 167 180 184 184 182 187 200 231 271 278 218 212 245 253 256 258 259 266 273 273 273 277 277 274 269 265 266 268 266 262 262 262 261 259 254 250 249 246 245
141 148 159 165 167 172 175 177 178 183 198 216 266 328 201 220 290 290 289 289 291 290 287 281 283 286 286 282 278 276 275 273 270 266 263 263 262 262 262 256 253 253 251
133 135 131 137 153 154 157 172 176 186 203 213 199 160 150 256 288 309 309 313 320 314 306 289 287 298 302 298 289 282 279 277 271 265 261 261 262 261 260 260 256 254 253
122 116 110 107 109 123 140 156 177 188 195 196 177 172 202 246 288 306 315 325 327 318 314 311 300 305 311 311 302 291 284 283 279 267 262 259 260 260 259 259 260 257 252
99 99 96 97 125 143 144 151 179 196 194 185 181 198 239 258 287 305 318 324 323 325 323 320 313 309 305 303 305 307 310 301 288 281 272 263 264 264 263 258 256 257 252
89 88 90 96 99 112 132 149 152 129 126 126 289 295 295 297 309 318 323 328 324 320 317 313 313 312 310 308 310 314 310 303 294 282 270 266 265 268 270 265 262 254 255
Height
1513 1515 1517 1520 1521 1523 1524 1525 1526 1527 1528 1528 1529 1530 1530 1531 1531 1531 1531 1532 1531 1531 1531 1531 1531 1531 1531 1531 1531 1530 1530 1530 1530 1529 1530 1530 1530 1529 1529 1529 1529 1528 1528
1509 1512 1515 1517 1519 1520 1521 1523 1524 1525 1526 1526 1527 1527 1528 1528 1529 1529 1529 1529 1528 1528 1528 1528 1528 1528 1528 1528 1528 1527 1527 1527 1527 1526 1526 1527 1527 1527 1527 1527 1527 1526 1526
1507 1509 1512 1514 1516 1517 1519 1520 1522 1523 1524 1525 1525 1525 1526 1526 1526 1526 1526 1526 1525 1525 1525 1525 1525 1525 1524 1524 1524 1524 1524 1524 1524 1523 1523 1523 1523 1524 1524 1524 1524 1524 1524
1504 1506 1508 1510 1512 1514 1516 1517 1519 1520 1521 1522 1523 1523 1523 1523 1523 1523 1523 1522 1522 1522 1522 1522 1522 1522 1521 1521 1521 1521 1521 1521 1521 1520 1520 1520 1520 1520 1521 1521 1521 1522 1522
1500 1502 1504 1507 1509 1511 1513 1515 1516 1517 1518 1518 1519 1519 1520 1520 1520 1520 1520 1519 1519 1519 1519 1518 1519 1518 1518 1518 1518 1517 1517 1517 1517 1517 1516 1516 1516 1516 1517 1517 1518 1518 1518
1497 1499 1502 1504 1507 1508 1510 1512 1513 1513 1514 1515 1515 1515 1516 1516 1516 1516 1516 1516 1516 1515 1515 1515 1515 1515 1515 1515 1514 1514 1514 1514 1514 1513 1513 1512 1513 1513 1514 1514 1514 1515 1515
1494 1496 1498 1501 1503 1505 1507 1508 1509 1510 1511 1511 1511 1512 1512 1512 1512 1512 1512 1512 1512 1512 1511 1511 1511 1511 1511 1511 1511 1510 1510 1510 1510 1510 1509 1509 1509 1510 1510 1510 1511 1511 1511
1491 1493 1494 1497 1500 1501 1503 1504 1505 1506 1507 1507 1508 1509 1508 1508 1509 1509 1509 1509 1508 1508 1507 1507 1507 1507 1507 1507 1507 1506 1506 1506 1506 1506 1506 1506 1507 1507 1507 1507 1507 1507 1508
1487 1489 1491 1494 1496 1497 1499 1500 1501 1502 1503 1503 1504 1505 1505 1505 1505 1505 1504 1504 1504 1504 1504 1504 1504 1504 1504 1504 1503 1502 1502 1502 1502 1502 1502 1503 1503 1503 1503 1503 1503 1503 1503
1484 1486 1488 1491 1492 1493 1495 1496 1497 1498 1499 1500 1501 1501 1501 1501 1501 1501 1501 1499 1499 1500 1499 1499 1500 1499 1500 1500 1499 1499 1498 1498 1498 1498 1498 1498 1498 1498 1498 1498 1499 1499 1499
1481 1483 1486 1487 1488 1490 1491 1492 1493 1494 1495 1496 1497 1498 1497 1497 1497 1497 1497 1496 1496 1496 1495 1495 1495 1495 1495 1495 1495 1495 1494 1494 1494 1493 1493 1493 1494 1494 1494 1494 1494 1494 1495
1478 1481 1482 1484 1485 1486 1487 1488 1489 1490 1491 1492 1493 1493 1493 1493 1493 1493 1493 1493 1492 1492 1491 1491 1491 1491 1491 1491 1491 1491 1491 1490 1490 1489 1489 1488 1488 1489 1489 1489 1489 1489 1490
1475 1478 1480 1481 1482 1483 1484 1484 1485 1487 1488 1488 1489 1489 1489 1490 1489 1489 1489 1489 1489 1488 1488 1488 1487 1487 1487 1487 1487 1487 1486 1486 1485 1485 1484 1484 1484 1484 1485 1485 1485 1485 1485
1473 1475 1476 1477 1478 1479 1480 1482 1482 1483 1484 1485 1486 1486 1486 1486 1486 1486 1486 1485 1485 1484 1484 1484 1484 1484 1484 1483 1483 1482 1482 1481 1481 1480 1480 1480 1480 1480 1480 1480 1480 1480 1479
1471 1471 1473 1474 1475 1476 1477 1478 1479 1481 1482 1483 1483 1483 1483 1483 1483 1483 1483 1482 1481 1481 1480 1480 1480 1480 1479 1479 1478 1478 1477 1477 1476 1476 1475 1475 1475 1475 1475 1475 1475 1475 1474
1468 1469 1470 1471 1472 1473 1474 1475 1476 1478 1479 1480 1480 1480 1480 1480 1480 1480 1480 1479 1478 1478 1477 1476 1476 1476 1475 1475 1474 1473 1473 1472 1472 1471 1470 1470 1470 1469 1470 1470 1470 1469 1469
1465 1466 1467 1468 1469 1470 1471 1472 1473 1475 1476 1476 1476 1476 1477 1477 1477 1477 1477 1476 1475 1474 1473 1473 1472 1472 1472 1471 1470 1469 1469 1468 1467 1466 1466 1466 1465 1465 1465 1465 1464 1464 1464
1462 1463 1464 1465 1466 1467 1469 1470 1471 1471 1472 1472 1473 1473 1474 1474 1473 1473 1473 1473 1472 1471 1470 1469 1468 1468 1468 1467 1466 1465 1464 1463 1463 1462 1461 1461 1460 1460 1460 1459 1459 1459 1459
1460 1460 1461 1462 1464 1465 1466 1467 1468 1468 1469 1469 1469 1470 1470 1470 1470 1470 1469 1469 1468 1467 1466 1465 1465 1464 1463 1463 1462 1461 1460 1459 1458 1457 1456 1456 1456 1455 1455 1454 1454 1454 1454
1457 1458 1459 1460 1461 1463 1464 1464 1465 1465 1466 1466 1466 1466 1466 1466 1466 1466 1465 1465 1464 1463 1463 1462 1461 1460 1459 1458 1457 1457 1456 1454 1453 1453 1452 1451 1451 1450 1450 1449 1449 1449 1448
1455 1456 1457 1458 1459 1460 1461 1461 1461 1462 1462 1463 1463 1463 1463 1463 1462 1462 1461 1461 1460 1459 1459 1458 1457 1456 1455 1455 1454 1453 1452 1451 1450 1448 1447 1447 1446 1445 1445 1444 1444 1443 1442
1453 1454 1454 1455 1456 1457 1458 1458 1458 1459 1459 1459 1459 1460 1460 1460 1459 1459 1457 1457 1456 1456 1455 1454 1453 1453 1452 1451 1450 1449 1448 1447 1446 1445 1443 1442 1442 1441 1440 1439 1439 1438 1438
1451 1452 1452 1453 1453 1454 1454 1455 1455 1456 1456 1456 1456 1456 1456 1456 1455 1455 1454 1453 1452 1452 1451 1450 1450 1449 1448 1447 1446 1445 1444 1443 1442 1440 1439 1438 1437 1436 1435 1434 1433 1433 1432
1450 1450 1450 1450 1451 1451 1451 1452 1453 1453 1453 1453 1453 1453 1452 1452 1452 1451 1451 1450 1449 1448 1447 1447 1446 1445 1444 1443 1442 1441 1440 1439 1437 1436 1435 1433 1432 1431 1430 1429 1428 1428 1427
1448 1448 1448 1448 1448 1449 1449 1450 1450 1451 1450 1450 1450 1449 1449 1449 1448 1448 1447 1446 1445 1444 1443 1443 1442 1441 1440 1439 1438 1437 1435 1434 1433 1431 1430 1429 1428 1426 1425 1424 1424 1423 1423
1446 1447 1447 1447 1447 1447 1447 1447 1447 1447 1447 1447 1447 1447 1446 1446 1445 1444 1443 1443 1442 1441 1440 1439 1438 1437 1435 1434 1433 1432 1431 1429 1428 1427 1426 1424 1423 1422 1421 1420 1419 1418 1418